Weather History for Dayton Wright, OH

Change the Weather History Date:

Saturday, July 20, 2013

  Actual Average (KFFO) Record (KFFO)
Temperature  
Mean Temperature 76 °F -  
Max Temperature 84 °F 82 °F 95 °F (2011)
Min Temperature 69 °F 61 °F 53 °F (1997)
Cooling Degree Days 12    
Growing Degree Days 26 (Base 50)    
Moisture  
Dew Point 69 °F    
Average Humidity 79    
Maximum Humidity 90    
Minimum Humidity 65    
Precipitation  
Precipitation 0.55 in - - ()
Sea Level Pressure  
Sea Level Pressure 29.89 in    
Wind  
Wind Speed 9 mph (WSW)    
Max Wind Speed 17 mph    
Max Gust Speed 26 mph    
Visibility 9 miles    
Events Rain , Thunderstorm    
Averages and records for this station are not official NWS values.
T = Trace of Precipitation, MM = Missing Value Source: NWS Daily Summary

Daily Weather History Graph

Daily Weather History Graph

Search for Another Location

Airport:

Trip Planner

Search our weather history database for the weather conditions in past years. The results will help you decide how hot, cold, wet, or windy it might be!

Date:

Astronomy

Jul. 20, 2013 Rise Set
Actual Time 6:26 AM EDT 9:00 PM EDT
Civil Twilight 5:54 AM EDT 9:31 PM EDT
Nautical Twilight 5:16 AM EDT 10:09 PM EDT
Astronomical Twilight 4:32 AM EDT 10:53 PM EDT
Moon 7:02 PM EDT (7/20) 4:04 AM EDT (7/20)
Length of Visible Light 15h 36m
Length of Day
14h 34m
Waxing Gibbous, 93% of the Moon is Illuminated
Jul 20
Waxing Gibbous
Jul 22
Full
Jul 29
Last Quarter
Aug 6
New
Aug 14
First Quarter

Hourly Weather History & Observations

Time (EDT) Temp. Heat Index Dew Point Humidity Pressure Visibility Wind Dir Wind Speed Gust Speed Precip Events Conditions
12:53 AM 79.0 °F - 71.1 °F 77% 29.91 in 9.0 mi SW 11.5 mph - N/A   Scattered Clouds
1:53 AM 79.0 °F - 70.0 °F 74% 29.91 in 10.0 mi SW 10.4 mph - N/A   Clear
2:53 AM 78.1 °F - 70.0 °F 76% 29.89 in 10.0 mi SW 9.2 mph - N/A   Clear
3:53 AM 77.0 °F - 70.0 °F 79% 29.87 in 10.0 mi SW 8.1 mph - N/A   Clear
4:53 AM 75.9 °F - 70.0 °F 82% 29.85 in 10.0 mi SW 10.4 mph - N/A   Clear
5:53 AM 75.0 °F - 69.1 °F 82% 29.86 in 10.0 mi SW 9.2 mph - N/A   Clear
6:53 AM 73.9 °F - 69.1 °F 85% 29.88 in 10.0 mi SSW 6.9 mph - N/A   Clear
7:53 AM 75.0 °F - 70.0 °F 84% 29.90 in 10.0 mi SSW 6.9 mph - N/A   Clear
8:53 AM 78.1 °F - 70.0 °F 76% 29.89 in 10.0 mi SW 11.5 mph - N/A   Partly Cloudy
9:53 AM 80.1 °F 83.2 °F 70.0 °F 71% 29.89 in 10.0 mi WSW 12.7 mph 20.7 mph N/A   Partly Cloudy
10:53 AM 82.0 °F 86.3 °F 71.1 °F 69% 29.89 in 10.0 mi WSW 9.2 mph - N/A   Clear
11:53 AM 84.0 °F 89.0 °F 71.1 °F 65% 29.90 in 10.0 mi SW 11.5 mph - N/A   Mostly Cloudy
12:53 PM 79.0 °F - 66.9 °F 66% 29.90 in 10.0 mi North 16.1 mph 20.7 mph N/A   Overcast
1:00 PM 75.2 °F - 64.4 °F 69% 29.93 in 10.0 mi NNE 10.4 mph 20.7 mph N/A Thunderstorm Overcast
1:26 PM 78.8 °F - 69.8 °F 74% 29.91 in 10.0 mi NNE 4.6 mph - 0.02 in Thunderstorm Mostly Cloudy
1:37 PM 80.6 °F 83.9 °F 69.8 °F 70% 29.91 in 10.0 mi Calm Calm - 0.02 in   Mostly Cloudy
1:53 PM 84.0 °F 89.6 °F 72.0 °F 67% 29.86 in 10.0 mi Calm Calm - 0.02 in   Partly Cloudy
2:16 PM 80.6 °F 84.6 °F 71.6 °F 74% 29.89 in 10.0 mi NE 10.4 mph - N/A Thunderstorm Mostly Cloudy
2:47 PM 71.6 °F - 66.2 °F 83% 29.92 in 1.8 mi Variable 5.8 mph - 0.10 in Rain , Thunderstorm Thunderstorms and Rain
2:53 PM 70.0 °F - 66.9 °F 90% 29.87 in 1.0 mi North 9.2 mph - 0.22 in Rain , Thunderstorm Heavy Thunderstorms and Rain
3:06 PM 75.2 °F - 69.8 °F 83% 29.89 in 10.0 mi NE 12.7 mph - 0.00 in Thunderstorm Thunderstorm
3:37 PM 78.8 °F - 69.8 °F 74% 29.89 in 10.0 mi Calm Calm - 0.00 in   Scattered Clouds
3:48 PM 78.8 °F - 69.8 °F 74% 29.90 in 10.0 mi North 11.5 mph - 0.00 in Thunderstorm Mostly Cloudy
3:53 PM 75.9 °F - 68.0 °F 76% 29.89 in 10.0 mi NNW 17.3 mph 26.5 mph 0.01 in Thunderstorm Mostly Cloudy
4:19 PM 71.6 °F - 66.2 °F 83% 29.92 in 1.8 mi WNW 13.8 mph 26.5 mph 0.16 in Rain , Thunderstorm Heavy Thunderstorms and Rain
4:40 PM 69.8 °F - 66.2 °F 88% 29.88 in 4.0 mi East 3.5 mph - 0.30 in Rain , Thunderstorm Light Thunderstorms and Rain
4:53 PM 71.1 °F - 66.9 °F 87% 29.87 in 10.0 mi North 5.8 mph - 0.30 in Thunderstorm Mostly Cloudy
5:14 PM 71.6 °F - 66.2 °F 83% 29.90 in 10.0 mi Calm Calm - 0.00 in   Mostly Cloudy
5:53 PM 73.0 °F - 68.0 °F 84% 29.88 in 10.0 mi SSW 4.6 mph - 0.00 in   Mostly Cloudy
6:53 PM 73.9 °F - 70.0 °F 87% 29.89 in 10.0 mi Calm Calm - N/A   Clear
7:53 PM 75.0 °F - 68.0 °F 79% 29.88 in 10.0 mi Calm Calm - N/A   Mostly Cloudy
8:53 PM 73.0 °F - 70.0 °F 90% 29.89 in 10.0 mi SSW 5.8 mph - N/A   Mostly Cloudy
9:53 PM 73.0 °F - 66.9 °F 81% 29.90 in 10.0 mi SW 3.5 mph - N/A   Overcast
10:53 PM 72.0 °F - 66.9 °F 84% 29.91 in 10.0 mi Calm Calm - N/A   Clear
11:53 PM 72.0 °F - 66.9 °F 84% 29.93 in 10.0 mi WSW 3.5 mph - N/A   Clear